Change the Weather History Date:

Monday, December 19, 2011

  Actual Average Record
Temperature  
Mean Temperature 26 °F 24 °F  
Max Temperature 41 °F 33 °F 49 °F (1957)
Min Temperature 11 °F 15 °F -18 °F (1973)
Degree Days  
Heating Degree Days 39 41  
Month to date heating degree days 607 716  
Since 1 July heating degree days 1846 2414  
Cooling Degree Days 0 0  
Month to date cooling degree days 0 0  
Year to date cooling degree days 503 352  
Moisture  
Dew Point 21 °F    
Average Humidity 69    
Maximum Humidity 92    
Minimum Humidity 54    
Precipitation  
Precipitation 0.00 in 0.09 in 0.48 in (1957)
Month to date precipitation 1.09 1.98  
Year to date precipitation 45.36 37.99  
Sea Level Pressure  
Sea Level Pressure 29.99 in    
Wind  
Wind Speed 7 mph (SSW)    
Max Wind Speed 17 mph    
Max Gust Speed 22 mph    
Visibility 10 miles    
Events      
T = Trace of Precipitation, MM = Missing Value Source: NWS Daily Summary

Daily Weather History Graph

Daily Weather History Graph

Search for Another Location

Airport or City:

Trip Planner

Search our weather history database for the weather conditions in past years. The results will help you decide how hot, cold, wet, or windy it might be!

Date:

Astronomy

Dec. 19, 2011 Rise Set
Actual Time 7:22 AM EST 4:20 PM EST
Civil Twilight 6:49 AM EST 4:53 PM EST
Nautical Twilight 6:13 AM EST 5:29 PM EST
Astronomical Twilight 5:38 AM EST 6:04 PM EST
Moon 1:22 AM EST (12/19) 12:23 PM EST (12/19)
Length of Visible Light 10h 03m
Length of Day
8h 58m
Waning Crescent, 31% of the Moon is Illuminated
Dec 19
Waning Crescent
Dec 24
New
Jan 1
First Quarter
Jan 9
Full
Jan 16
Last Quarter

Hourly Weather History & Observations

Time (EST) Temp. Windchill Dew Point Humidity Pressure Visibility Wind Dir Wind Speed Gust Speed Precip Events Conditions
12:53 AM 10.9 °F - 8.1 °F 88% 30.26 in 10.0 mi Calm Calm - N/A   Clear
1:53 AM 12.0 °F - 8.1 °F 84% 30.26 in 10.0 mi Calm Calm - N/A   Scattered Clouds
2:53 AM 15.1 °F 9.4 °F 10.9 °F 84% 30.24 in 10.0 mi South 3.5 mph - N/A   Mostly Cloudy
3:53 AM 14.0 °F - 9.0 °F 80% 30.21 in 10.0 mi Calm Calm - N/A   Clear
4:53 AM 17.1 °F - 10.9 °F 77% 30.18 in 10.0 mi Calm Calm - N/A   Scattered Clouds
5:53 AM 19.0 °F 10.0 °F 10.9 °F 71% 30.16 in 10.0 mi SSW 6.9 mph - N/A   Mostly Cloudy
6:53 AM 19.9 °F 10.1 °F 10.0 °F 65% 30.14 in 10.0 mi South 8.1 mph - N/A   Overcast
7:53 AM 21.0 °F 13.4 °F 10.9 °F 65% 30.12 in 10.0 mi SSW 5.8 mph - N/A   Overcast
8:53 AM 21.9 °F 13.4 °F 12.0 °F 66% 30.08 in 10.0 mi SSW 6.9 mph - N/A   Overcast
9:53 AM 26.1 °F 15.6 °F 14.0 °F 60% 30.06 in 10.0 mi SSW 11.5 mph - N/A   Clear
10:53 AM 30.0 °F 23.2 °F 17.1 °F 59% 30.00 in 10.0 mi SW 6.9 mph - N/A   Clear
11:53 AM 33.1 °F 24.9 °F 21.0 °F 61% 29.95 in 10.0 mi SSW 10.4 mph 18.4 mph N/A   Overcast
12:53 PM 35.6 °F 27.5 °F 21.2 °F 56% 29.88 in 10.0 mi SSW 11.5 mph - N/A   Mostly Cloudy
1:53 PM 37.4 °F 28.9 °F 23.0 °F 56% 29.84 in 10.0 mi SSW 13.8 mph - N/A   Mostly Cloudy
2:53 PM 37.9 °F 30.9 °F 24.1 °F 57% 29.87 in 10.0 mi SW 10.4 mph - N/A   Overcast
3:53 PM 37.9 °F 32.1 °F 25.0 °F 60% 29.88 in 10.0 mi SW 8.1 mph - N/A   Overcast
4:53 PM 37.9 °F 32.1 °F 25.0 °F 60% 29.89 in 10.0 mi SW 8.1 mph - N/A   Overcast
5:53 PM 37.9 °F 31.5 °F 26.1 °F 62% 29.88 in 10.0 mi South 9.2 mph - N/A   Overcast
6:53 PM 39.0 °F 34.8 °F 26.1 °F 60% 29.88 in 10.0 mi SSW 5.8 mph - N/A   Overcast
7:53 PM 39.0 °F 33.4 °F 28.0 °F 65% 29.88 in 10.0 mi South 8.1 mph - N/A   Overcast
8:19 PM 39.2 °F 34.2 °F 28.4 °F 65% 29.84 in 10.0 mi South 6.9 mph - N/A   Overcast
8:53 PM 39.9 °F 36.7 °F 30.0 °F 68% 29.88 in 10.0 mi South 4.6 mph - N/A   Overcast
9:53 PM 41.0 °F 35.8 °F 35.1 °F 79% 29.87 in 10.0 mi SSW 8.1 mph - N/A   Overcast
10:53 PM 41.0 °F 37.1 °F 36.0 °F 82% 29.87 in 10.0 mi SSW 5.8 mph - N/A   Overcast
11:13 PM 41.0 °F 37.1 °F 35.6 °F 81% 29.86 in 10.0 mi South 5.8 mph - N/A   Overcast
11:53 PM 39.9 °F 34.5 °F 37.0 °F 89% 29.89 in 10.0 mi South 8.1 mph - N/A   Overcast